Location: Croydon
(51.3762°N, 0.0982°W)
Time: 05:39:29
(UTC+00:00)

Transit 4A - Visible Passes

Search period start: 14 November 2019 00:00
Search period end: 24 November 2019 00:00
Orbit: 868 x 976 km, 66.8° (Epoch: 13 November)

Date Brightness Start Highest point End Pass type
(mag) Time Alt. Az. Time Alt. Az. Time Alt. Az.
14 Nov 10.1 02:48:34 16° NNE 02:48:34 16° NNE 02:50:29 10° NE visible
14 Nov 9.7 04:32:05 16° NNW 04:34:43 21° NNE 04:39:04 10° ENE visible
14 Nov 8.7 06:16:55 10° NNW 06:22:39 44° NE 06:28:13 10° ESE visible
15 Nov 10.1 02:57:47 17° NNE 02:57:47 17° NNE 03:00:06 10° NE visible
15 Nov 9.6 04:41:18 15° NNW 04:44:29 23° NNE 04:49:06 10° ENE visible
15 Nov 8.4 06:26:15 10° NW 06:32:09 56° NE 06:37:54 10° ESE visible
16 Nov 10.0 03:07:01 17° NNE 03:07:01 17° NNE 03:09:50 10° NE visible
16 Nov 9.5 04:50:31 15° NNW 04:54:14 26° NNE 04:59:07 10° E visible
16 Nov 8.0 06:35:36 10° NW 06:41:35 74° NE 06:47:25 10° SE visible
17 Nov 9.9 03:16:15 18° NNE 03:16:15 18° NNE 03:19:41 10° NE visible
17 Nov 9.2 04:59:46 15° NNW 05:03:55 31° NNE 05:09:04 10° E visible
18 Nov 9.8 03:25:32 19° NNE 03:25:32 19° NNE 03:29:39 10° NE visible
18 Nov 8.9 05:09:02 15° NNW 05:13:32 38° NE 05:18:57 10° ESE visible
19 Nov 9.7 03:34:49 21° N 03:35:15 21° NNE 03:39:40 10° ENE visible
19 Nov 8.6 05:18:21 15° NNW 05:23:04 48° NE 05:28:43 10° ESE visible
20 Nov 9.5 03:44:10 23° N 03:45:00 24° NNE 03:49:42 10° ENE visible
20 Nov 8.2 05:27:42 16° NNW 05:32:34 62° NE 05:38:20 10° SE visible
21 Nov 10.6 02:10:01 11° NE 02:10:01 11° NE 02:10:22 10° NE visible
21 Nov 9.3 03:53:33 26° N 03:54:43 28° NNE 03:59:43 10° E visible
21 Nov 7.8 05:37:05 16° NW 05:41:58 82° NE 05:47:48 10° SE visible
22 Nov 10.5 02:19:27 13° NE 02:19:27 13° NE 02:20:15 10° NE visible
22 Nov 9.1 04:02:59 30° N 04:04:23 33° NNE 04:09:39 10° E visible
22 Nov 7.7 05:46:31 16° NW 05:51:18 75° SW 05:57:05 10° SSE visible
23 Nov 10.4 02:28:56 14° NE 02:28:56 14° NE 02:30:15 10° ENE visible
23 Nov 8.8 04:12:28 35° N 04:13:58 41° NE 04:19:29 10° ESE visible
23 Nov 7.9 05:56:00 16° NW 06:00:33 55° WSW 06:06:12 10° SSE visible
